Preview of NWS' New Version of Forecast
This preview is not operational and should not be used for support decisions.
Latest weather observations around

INDEPENDENCE (KIDP)

Using English Units (Switch to International System of Units)
Date/ Time (CDT) Wind (mph) Vis. (mi) Weather Sky Cond. Temp (°F) Rel. Humidity Wind Chill (°F) Heat Index (°F) Pressure Precip. (in)
Air Dwpt 6 hour Altimeter (inHg) Sea level (inHg) 1 hr 3 hr 6 hr
Max Min
May 26 05:15 S 8 10 Mostly Cloudy BKN008 BKN095 BKN120 65 63     95%     30        
May 26 04:55 SSW 7 10 Mostly Cloudy SCT095 BKN120 65 63     94%     30        
May 26 04:35 SSW 9 10 Mostly Cloudy BKN095 BKN110 65 63     94%     29.98        
May 26 04:15 SSW 8 10 Cloudy BKN095 OVC110 65 63     93%     29.97        
May 26 03:55 SSE 7 10 Mostly Cloudy SCT095 BKN120 65 62     92%     29.95        
May 26 03:35 SSE 12 10 Partly Cloudy SCT120 66 61     83%     29.92        
May 26 03:15 ESE 13 10 Light Rain SCT055 SCT075 BKN110 66 61     85%     29.9        
May 26 02:55 ESE 14 10 Light Rain SCT080 OVC110 66 61     84%     29.92   0    
May 26 02:35 E 14 10 Rain BKN080 OVC110 65 62     92%     29.98   0    
May 26 02:15 W 11 10 Rain SCT055 BKN070 OVC090 65 62     89%     30.04   0    
May 26 01:55 WSW 9 7 Thunderstorms and Heavy Rain SCT036 BKN070 OVC090 66 63     92%     30.07   0    
May 26 01:35 SW 13 7 Thunderstorms and Rain SCT036 BKN070 OVC090 66 63     90%     30.08   0    
May 26 01:15 W 13 10 Thunderstorms and Rain SCT060 SCT070 OVC090 66 63     89%     30.08   0    
May 26 00:55 WNW 18 10 Thunderstorms and Rain OVC110 67 63     88%     30.06   0   0
May 26 00:35 WNW 16 10 Rain SCT100 OVC120 66 63     90%     30.04   0    
May 26 00:15 WNW 18 10 Cloudy SCT100 OVC120 66 63     90%     30.04   0    
May 25 23:55 WNW 20 10 Light Rain SCT045 SCT055 BKN120 66 64     91%     30.06   0    
May 25 23:35 WNW 21 10   SCT038 BKN060 OVC095 67 64     89%     30.08   0    
May 25 23:15   10 Light Rain SCT031 SCT048 BKN060 73 69     87%   74 30.08        
May 25 22:55 WSW 6 7 Partly Cloudy SCT110 73 69     90%   74 30.05        
May 25 22:35 SSW 6 10 Partly Cloudy SCT120 73 69     88%   74 30.04        
May 25 22:15 SSE 6 10   CLR 73 69     87%   75 30.01        
May 25 21:55 SE 6 10   CLR 74 69     86%   75 30.01        
May 25 21:35 Calm 10 Clear CLR 74 69     85%   75 30.01        
May 25 21:15 S 6 10 Clear CLR 74 69     85%   75 30.01        
May 25 20:55 S 7 10 Clear CLR 74 69     84%   75 30        
May 25 20:35 SSE 7 10 Clear CLR 75 69     81%   76 29.99        
May 25 20:15 SSE 9 10 Clear CLR 76 69     79%   77 29.98        
May 25 19:55 SSE 8 10 Clear CLR 77 69     78%   78 29.98        
May 25 19:35 SSE 10 10 Clear CLR 78 69     76%   79 29.98        
May 25 19:15 SSE 12 10 Clear CLR 78 70     77%   79 29.97        
May 25 18:55 SSE 12 10 Clear CLR 79 70     74%   80 29.96        
May 25 18:35 SSE 11 10 Partly Cloudy SCT038 SCT046 SCT049 79 71     75%   82 29.96        
May 25 18:15 SSE 11 10 Cloudy BKN040 OVC048 80 71     74%   83 29.96        
May 25 17:55 S 13 10 Cloudy BKN038 BKN043 OVC049 81 71     72%   85 29.97        
May 25 17:35 SSE 15 10 Mostly Cloudy BKN038 81 71     70%   85 29.97        
May 25 17:15 SSE 16 10 Mostly Cloudy BKN036 BKN044 82 71     68%   86 29.97        
May 25 16:55 S 17 10 Mostly Cloudy BKN036 BKN045 83 71     67%   88 29.97        
May 25 16:35 S 16 10 Cloudy BKN036 OVC044 82 70     68%   86 29.98        
May 25 16:15 S 17 10 Cloudy SCT032 OVC039 82 72     70%   87 29.98        
May 25 15:55 S 20 10 Mostly Cloudy and Windy SCT032 BKN039 83 72     70%   88 29.98        
May 25 15:35 S 16 10 Cloudy BKN032 OVC039 82 71     71%   86 29.99        
May 25 15:15 SSW 16 10 Cloudy OVC032 80 70     71%   84 30        
May 25 14:55 S 14 10 Cloudy OVC032 81 71     73%   84 30        
May 25 14:35 S 17 10 Cloudy OVC032 80 70     71%   83 30.01        
May 25 14:15 S 17 10 Mostly Cloudy BKN034 81 70     69%   85 30.02        
May 25 13:55 S 20 10 Partly Cloudy and Windy SCT034 81 70     69%   85 30.02        
May 25 13:35 SSW 21 10 Clear and Windy CLR 81 69     66%   84 30.02        
May 25 13:15 SSW 20 10 Clear and Windy CLR 80 69     68%   83 30.03        
May 25 12:55 SSW 21 10 Clear and Windy CLR 80 68     67%   83 30.03        
May 25 12:35 SSW 20 10 Partly Cloudy and Windy SCT026 80 70     71%   83 30.03        
May 25 12:15 SSW 17 10 Mostly Cloudy BKN024 BKN032 79 70     74%   80 30.04        
May 25 11:55 SSW 22 10 Mostly Cloudy and Windy BKN022 BKN029 78 70     76%   79 30.05        
May 25 11:35 SSW 18 10 Cloudy OVC020 76 70     80%   78 30.05        
May 25 11:15 SSW 18 10 Cloudy OVC018 77 71     82%   78 30.04        
May 25 10:55 S 15 10 Cloudy BKN017 OVC090 77 71     82%   78 30.04        
May 25 10:35 SSW 13 10 Partly Cloudy SCT017 SCT090 74 69     84%   75 30.04        
May 25 10:15 S 14 10 Partly Cloudy SCT015 SCT100 75 70     83%   77 30.03        
May 25 09:55 S 15 10 Mostly Cloudy SCT014 BKN095 BKN110 74 69     85%   75 30.04        
May 25 09:35 S 8 10 Mostly Cloudy BKN010 BKN016 BKN085 72 68     88%   73 30.04        
May 25 09:15 SSE 10 10 Cloudy OVC008 71 67     89%   71 30.04        
May 25 08:55 SSE 8 10 Cloudy OVC008 69 66     91%     30.03        
May 25 08:35 SSE 7 10 Cloudy OVC008 68 66     93%     30.04        
May 25 08:15 SE 8 10 Cloudy OVC009 67 65     93%     30.03        
May 25 07:55 SE 6 10 Cloudy OVC011 67 65     95%     30.02        
May 25 07:35 SSE 5 10 Cloudy OVC011 66 65     95%     30.03        
May 25 07:15 SSE 6 10 Cloudy BKN011 OVC085 65 64     96%     30.02        
May 25 06:55 S 7 10 Mostly Cloudy SCT011 BKN085 65 64     96%     30.02        
May 25 06:35 S 7 10 Mostly Cloudy BKN011 BKN095 65 64     97%     30.02        
May 25 06:15 S 8 10 Cloudy OVC011 65 64     96%     30.01        
May 25 05:55 S 9 10 Cloudy OVC011 66 64     96%     30.01        
May 25 05:35 S 9 10 Cloudy OVC009 66 64     96%     30.01        
May 25 05:15 S 8 10 Cloudy OVC009 66 64     95%     30        
May 25 04:55 SSW 10 10 Cloudy BKN009 OVC013 66 64     94%     29.99        
May 25 04:35 S 7 10 Cloudy OVC011 66 64     93%     29.97        
May 25 04:15 SW 9 10 Cloudy OVC009 66 64     93%     29.97        
May 25 03:55 WSW 7 10 Mostly Cloudy BKN009 65 63     95%     29.93        
May 25 03:35 WSW 9 10 Partly Cloudy SCT009 65 63     94%     29.91        
May 25 03:15 SSE 21 10 Clear and Windy CLR 66 63     88%     29.86        
May 25 02:55   10   SCT100 SCT120 66 63     88%         0    
May 25 02:35   10 Light Rain OVC110 67 63     88%     29.95   0    
May 25 02:15 S 18 10 Cloudy SCT080 OVC110 67 63     89%     29.93   0    
May 25 01:55   10 Light Rain SCT060 BKN090 OVC110 65 64     95%     29.91   0    
May 25 01:35 SSE 15 10 Rain BKN100 OVC120 66 64     95%     29.95   0    
May 25 01:15 S 10 10 Light Rain BKN100 OVC120 66 64     95%     29.98   0    
May 25 00:50 SSW 9 10 Light Rain BKN110 66 64     94%     30   0    
May 25 00:35 S 15 7 Rain BKN110 66 64     94%     30.01   0    
May 25 00:15 S 15 10 Light Rain BKN110 67 64     93%     30.01   0    
May 24 23:55 SSW 15 10   OVC110 67 65     95%     30.02   0    
May 24 23:35 S 18 10   BKN100 OVC120 67 65     96%     30   0    
May 24 23:15 S 13 10 Light Rain SCT090 OVC120 66 65     95%     29.99        
May 24 22:55 SSE 13 10 Light Rain OVC120 66 65     96%     30   0    
May 24 22:35 SSE 13 10 Light Rain BKN120 66 64     95%     29.98   0    
May 24 22:15 SSE 14 10 Mostly Cloudy SCT090 BKN110 65 64     95%     29.97   0    
May 24 21:55 SSE 10 7   SCT008 SCT055 OVC095 66 64     95%     29.96   0    
May 24 21:35 S 9 7 Thunderstorms and Heavy Rain and Fog/Mist BKN010 BKN026 OVC065 66 65     95%     29.96   0    
May 24 21:15   2 Thunderstorms and Heavy Rain and Fog/Mist BKN011 BKN025 OVC041 68 64     89%     30   0    
May 24 20:55 S 17 10 Clear   77 70     78%   78 29.9        
May 24 20:35 S 14 10 Clear   78 69     75%   79 29.9        
May 24 20:15 S 13 10 Clear   78 70     75%   79 29.89        
May 24 19:55 S 15 10 Clear   79 70     73%   82 29.87        
May 24 19:35 S 16 10 Mostly Cloudy BKN042 79 70     73%   82 29.87        
May 24 19:15 SSE 17 10 Clear CLR 80 71     74%   83 29.84        
May 24 18:55 S 17 10 Partly Cloudy SCT040 80 70     72%   84 29.83        
May 24 18:35 S 20 10 Partly Cloudy and Windy SCT040 SCT046 SCT090 80 70     71%   84 29.84        
May 24 18:15 S 18 10 Mostly Cloudy SCT043 SCT050 BKN090 81 71     71%   85 29.85        
May 24 17:55 S 18 10 Mostly Cloudy SCT038 SCT049 BKN100 81 71     70%   85 29.86        
May 24 17:35 S 17 10 Cloudy SCT038 BKN050 OVC110 81 71     71%   86 29.87        
May 24 17:15 S 14 10 Mostly Cloudy SCT040 BKN048 BKN060 83 72     70%   88 29.89        
May 24 16:55 S 21 10 Mostly Cloudy and Windy SCT037 SCT050 BKN090 83 73     72%   90 29.88        
May 24 16:35 S 21 10 Mostly Cloudy and Windy SCT037 BKN047 BKN055 83 73     73%   88 29.88        
May 24 16:15 SSE 15 10 Mostly Cloudy SCT034 BKN042 BKN050 82 73     76%   87 29.89        
May 24 15:55 SSE 15 10 Mostly Cloudy SCT029 SCT040 BKN050 82 74     77%   87 29.91        
May 24 15:35 SSE 11 10 Mostly Cloudy BKN029 BKN039 BKN055 81 74     79%   85 29.92        
May 24 15:15 S 13 10 Partly Cloudy SCT040 SCT075 SCT110 83 74     75%   89 29.93        
May 24 14:55 SSE 17 10 Partly Cloudy SCT110 83 75     76%   91 29.94        
May 24 14:35 SSE 17 10 Partly Cloudy SCT075 SCT110 82 74     77%   88 29.95        
May 24 14:15 SSE 16 10 Clear CLR 81 74     78%   86 29.96        
May 24 13:55 SSE 8 10 Clear CLR 77 72     84%   79 29.96        
May 24 13:35 SE 7 10 Partly Cloudy SCT110 77 72     84%   78 29.98        
May 24 13:15 SSE 7 10 Mostly Cloudy SCT036 SCT046 BKN070 76 71     84%   77 29.99        
May 24 12:55 S 7 10 Cloudy SCT034 OVC046 74 69     85%   75 30        
May 24 12:35 S 8 10 Cloudy SCT039 OVC047 75 69     82%   76 30.01        
May 24 12:15 SSE 9 10 Cloudy BKN040 BKN048 OVC065 73 69     87%   74 30.01        
May 24 11:55 SSE 7 10   SCT050 BKN090 OVC120 71 68     91%   72 30.02        
May 24 11:35 S 8 10 Cloudy OVC090 70 67     91%     30.01        
May 24 11:15 SSE 7 10 Cloudy SCT047 SCT075 OVC110 69 66     92%     30.01        
May 24 10:55 E 10 7 Heavy Rain and Fog/Mist SCT035 BKN065 OVC095 67 65     93%     29.98   0    
May 24 10:35 NNE 8 5 Rain and Fog/Mist SCT022 BKN050 OVC085 66 64     92%     30.02   0    
May 24 10:15 WNW 12 10   SCT019 BKN026 OVC034 69 67     92%     30.05        
May 24 09:55 SSW 5 10 Cloudy SCT030 BKN040 OVC046 69 67     93%     30.03   0 0  
May 24 09:35 S 8 10   BKN048 OVC050 70 68     92%   71 30.01        
May 24 09:15 SSE 6 10 Cloudy BKN060 BKN070 OVC090 69 67     92%     30.01        
May 24 08:55 SE 8 10 Cloudy SCT039 BKN060 OVC080 68 66     93%     30   0    
May 24 08:35 S 5 7 Rain and Fog/Mist SCT033 BKN041 OVC055 68 66     92%     30.02   0    
May 24 08:15 WNW 8 10 Light Rain SCT015 SCT022 OVC033 69 65     87%     30        
May 24 07:55   10 Mostly Cloudy SCT015 SCT026 BKN085 73 67     81%   74 30        
May 24 07:35 S 15 10 Mostly Cloudy BKN085 74 70     87%   75 29.98        
May 24 07:15 S 14 10 Mostly Cloudy BKN085 73 70     89%   75 29.98        
May 24 06:55 S 13 10 Clear CLR 73 69     89%   74 29.98        
May 24 06:35 S 15 10 Clear CLR 72 69     90%   73 29.98        
May 24 06:15 S 18 10 Clear CLR 72 69     89%   73 29.96        
May 24 05:55 S 17 10 Clear CLR 72 69     90%   73 29.95        
May 24 05:35 S 16 10 Clear CLR 72 69     90%   73 29.95        
May 24 05:15 S 15 10 Clear CLR 72 68     90%   73 29.96        
May 24 04:55 S 14 10 Clear CLR 71 68     90%   72 29.96        
May 24 04:35 SSE 15 10 Partly Cloudy SCT050 SCT070 71 68     90%   72 29.95        
May 24 04:15 S 13 10 Mostly Cloudy SCT050 BKN070 71 68     90%   72 29.95        
May 24 03:55 S 12 10 Partly Cloudy SCT070 71 68     89%   72 29.95        
May 24 03:35 SSE 11 10 Mostly Cloudy SCT050 BKN070 71 68     89%   72 29.95        
May 24 03:15 S 10 10 Cloudy SCT044 BKN050 OVC060 72 68     88%   73 29.95        
May 24 02:55 S 9 10 Mostly Cloudy BKN044 70 67     91%   71 29.94        
May 24 02:35 SSE 10 10 Clear CLR 70 67     90%   71 29.94        
May 24 02:15 SSE 9 10 Partly Cloudy SCT049 70 67     91%   71 29.95        
May 24 01:55 SSE 6 10 Clear CLR 70 67     90%   71 29.96        
May 24 01:35 SSE 7 10 Clear CLR 71 67     90%   72 29.96        
May 24 01:15 SSE 6 10 Clear CLR 70 67     92%     29.97        
May 24 00:55 S 6 10 Clear CLR 71 68     90%   72 29.97        
May 24 00:35 S 8 10 Clear CLR 71 68     90%   72 29.97        
May 24 00:15 S 9 10 Clear CLR 72 68     89%   73 29.97        
May 23 23:55 SSE 7 10 Clear CLR 70 67     91%   71 29.98        
May 23 23:35 S 6 10 Clear CLR 71 68     89%   72 29.99        
May 23 23:15 S 5 10 Clear CLR 72 68     87%   73 29.98        
May 23 22:55 SSE 6 10 Clear CLR 73 68     85%   74 29.98        
May 23 22:35 SSE 9 10 Clear CLR 73 68     86%   74 29.97        
May 23 22:15 SSE 7 10 Clear CLR 73 68     85%   74 29.97        
May 23 21:55 SSE 7 10 Clear CLR 74 68     83%   75 29.97        
May 23 21:35 SSE 9 10 Clear CLR 75 69     80%   76 29.96        
May 23 21:15 SSE 9 10 Clear CLR 76 69     79%   77 29.96        
May 23 20:55 SSE 9 10 Clear CLR 76 69     78%   77 29.95        
May 23 20:35 SSE 9 10 Partly Cloudy SCT047 77 69     76%   78 29.94        
May 23 20:15 SSE 10 10 Partly Cloudy SCT047 SCT060 78 69     75%   79 29.94        
May 23 19:55 SE 13 10 Partly Cloudy SCT060 79 70     74%   80 29.93        
May 23 19:35 SSE 14 10 Clear CLR 80 70     72%   83 29.93        
May 23 19:15 SSE 14 10 Partly Cloudy SCT065 SCT070 81 71     71%   84 29.93        
May 23 18:55 SSE 16 10 Partly Cloudy SCT070 82 71     70%   86 29.94        
May 23 18:35 SSE 15 10 Partly Cloudy SCT048 SCT070 82 71     71%   86 29.95        
May 23 18:15 SSE 15 10 Mostly Cloudy SCT033 BKN070 81 72     73%   85 29.95        
May 23 17:55 SSE 14 10 Partly Cloudy SCT033 SCT070 83 73     72%   88 29.96        
May 23 17:35 SSE 15 10 Partly Cloudy SCT070 82 72     72%   87 29.96        
May 23 17:15 S 15 10 Mostly Cloudy SCT060 BKN075 82 73     73%   88 29.96        
May 23 16:55 SSE 20 10 Mostly Cloudy and Windy SCT034 SCT040 BKN075 83 73     72%   88 29.96        
May 23 16:35 SSE 17 10 Mostly Cloudy BKN034 BKN048 BKN075 83 73     73%   89 29.97        
May 23 16:15 S 17 10 Mostly Cloudy BKN032 BKN040 BKN060 83 73     72%   88 29.97        
May 23 15:55 SSE 21 10 Mostly Cloudy and Windy SCT032 BKN075 84 73     71%   91 29.98        
May 23 15:35 S 18 10 Mostly Cloudy SCT043 BKN075 83 73     71%   89 29.98        
May 23 15:15 S 21 10 Mostly Cloudy and Windy SCT034 SCT040 BKN075 83 72     70%   89 29.99        
May 23 14:55 S 16 10 Mostly Cloudy SCT029 BKN039 BKN048 84 73     69%   91 29.99        
May 23 14:35 S 16 10 Mostly Cloudy BKN029 BKN038 BKN070 82 73     74%   87 30        
May 23 14:15 S 16 10 Mostly Cloudy SCT029 SCT040 BKN065 83 73     73%   89 30        
May 23 13:55 SSE 17 10 Cloudy SCT027 BKN031 OVC043 82 74     76%   88 30.01        
May 23 13:35 S 17 10 Mostly Cloudy BKN023 BKN029 BKN037 82 74     77%   89 30.01        
May 23 13:15 S 15 10 Cloudy SCT015 BKN021 OVC031 81 74     79%   87 30.02        
May 23 12:55 S 13 10 Cloudy BKN015 OVC034 80 75     85%   85 30.03        
May 23 12:35 SSE 8 7 Fog/Mist BKN010 BKN018 BKN040 79 75     87%   83 30.03        
May 23 12:15 SE 5 10 Cloudy OVC008 76 73     91%   78 30.04        
May 23 11:55 ESE 8   Cloudy BKN006 OVC009 75 73     93%   76 30.04        
May 23 11:35 E 7 10 Cloudy SCT004 OVC009 71 70     97%   73 30.04        
May 23 11:15 NE 6 10 Cloudy OVC007 69 68     98%     30.04        
May 23 10:55 NE 5 10 Cloudy BKN009 OVC013 68 67     98%     30.04   0    
May 23 10:35 ENE 8 7 Light Rain and Fog/Mist SCT004 OVC011 67 67     98%     30.04   0    
May 23 10:15 NE 6 10 Rain OVC004 67 66     97%     30.04        
May 23 09:55 NE 5 10 Light Rain BKN004 OVC011 67 66     97%     30.04        
May 23 09:35 NNE 6 10 Cloudy BKN004 OVC011 66 65     98%     30.04        
May 23 09:15 NE 7 7 Light Rain OVC006 65 65     98%     30.03        
May 23 08:55 NE 7 7 Light Rain OVC006 65 64     97%     30.03        
May 23 08:35 NE 7 10 Cloudy SCT006 OVC013 65 64     98%     30.03        
May 23 08:15 NE 9 10 Light Rain BKN009 OVC013 64 63     97%     30.02        
May 23 07:55 NE 9 10 Light Rain OVC007 64 63     97%     30.02   0    
May 23 07:35 N 9 10 Light Rain BKN008 OVC014 64 63     97%     30.02   0    
May 23 07:15 NE 8 10 Rain OVC010 64 63     97%     30.01   0    
May 23 06:55 N 8 7 Light Rain OVC010 64 63     96%     30   0   0
May 23 06:35 N 8 10 Rain OVC010 64 63     96%     29.99   0    
May 23 06:15 NNE 6 10 Light Rain BKN010 OVC018 64 63     96%     29.98   0    
May 23 05:55 N 8 10 Light Rain SCT014 OVC021 64 63     95%     29.98   0    
May 23 05:35 N 7 10   OVC023 65 63     94%     29.96   0    
May 23 05:15 NE 12 10 Thunderstorms and Light Rain OVC027 65 63     92%     29.95   0    
May 23 04:55 ENE 7 10 Cloudy SCT012 OVC029 65 63     92%     29.95        
May 15 13:35 WSW 10 10 Mostly Cloudy BKN034 BKN039 BKN060 80 69     69%   83 29.98        
May 15 04:15 SE 14 10 Clear CLR 63 61     93%     29.87        
May 14 22:35   5 Thunderstorms and Haze BKN050 BKN060 BKN120 74 62     66%   75 29.92        
May 14 11:55 SSW 21 10 Clear and Windy CLR 85 70     61%   90 29.92        
May 14 11:15 S 24 10 Clear and Windy CLR 84 70     63%   88 29.92        
May 14 10:55 SSW 21 10 Clear and Windy CLR 81 69     66%   84 29.93        
May 14 08:55 S 13 10 Clear CLR 74 67     80%   75 29.94        
May 14 06:35 S 9 10 Clear CLR 71 66     84%   71 29.91        
Notice The following observation data may not be complete
May 14 00:55   10 Clear CLR          %              
May 13 19:55 S 14 10 Clear CLR 81 63     55%   82 29.89        
May 13 08:55 S 16 10 Clear CLR 76 69     78%   77 29.98        
May 13 06:35 S 7 10 Clear CLR 67 65     93%     29.96        
May 13 02:15 SSE 6 10 Clear CLR 67 64     90%     29.95        
May 13 00:35 S 3 10 Clear CLR 69 64     86%     29.97        
May 12 21:15 S 9 10 Mostly Cloudy BKN041 77 66     70%   78 29.91        
May 12 16:15 S 21 10 Clear and Windy   83 69     62%   87 29.88        
May 12 04:35 SSE 10 10 Clear CLR 69 62     78%     29.83        
May 12 01:55 S 14 10 Clear CLR 73 63     72%   73 29.8        
May 11 14:15 S 22 10 Clear and Windy CLR 83 64     53%   85 29.77        
May 11 09:35 SSW 23 10 Clear and Windy CLR 74 62     66%   74 29.8        
Jun 12 08:15 S 17 10 Clear CLR 73 68     83%   74 29.92        
Jun 12 07:12 SSE 10 10 Clear CLR 72 64     78%   72 29.91        
Jun 12 05:55 S 10 10 Clear CLR 70 63     78%     29.89        
Jun 12 05:12 S 12 10 Clear CLR 72 63     73%   72 29.88        
Jun 12 02:12 SSE 10 10 Clear CLR 72 64     78%   72 29.88        
Jun 12 01:52 SSE 10 10 Clear CLR 72 64     78%   72 29.89        
Notice The following observation data may not be complete
Jun 12 00:15   10 Clear CLR          %              
Notice The following observation data may not be complete
Jun 11 23:15   10 Clear CLR          %              
Notice The following observation data may not be complete
Jun 11 22:47   10 Clear CLR          %              
Notice The following observation data may not be complete
Jun 11 21:42   10 Clear CLR          %              
Jun 11 21:07 SSE 14 10 Clear CLR 79 64     61%   79 29.84        
Jun 11 19:27 SSE 15 10 Clear CLR 82 66     58%   85 29.83        
Notice The following observation data may not be complete
Jun 11 18:42   10 Clear CLR          %              
Jun 11 18:12 SSE 21 10 Clear and Windy CLR 84 66     55%   87 29.83        
Jun 11 17:27 SSE 20 10 Clear and Windy CLR 86 66     52%   88 29.84        
Jun 11 17:12 SSE 26 10 Clear and Breezy CLR 86 66     52%   88 29.84        
Jun 11 16:32 S 24 10 Clear and Windy CLR 86 66     52%   88 29.84        
Jun 11 15:17 SSE 24 10 Partly Cloudy and Windy SCT043 88 66     49%   90 29.86        
Notice The following observation data may not be complete
Jun 11 15:15   10 Partly Cloudy SCT043          %              
Jun 11 15:12 SSE 26 10 Clear and Breezy   88 66     49%   90 29.86        
Jun 11 14:52 S 22 10 Clear and Windy CLR 88 66     49%   90 29.86        
Jun 11 12:42 S 20 10 Clear and Windy CLR 86 64     49%   88 29.87        
Notice The following observation data may not be complete
Jun 11 11:47   10 Clear CLR          %              
Jun 11 11:32 S 23 10 Clear and Windy CLR 84 64     52%   86 29.87        
Jun 11 10:42 S 20 10 Clear and Windy CLR 82 64     55%   84 29.86        
Jun 11 10:07 S 21 10 Clear and Windy CLR 81 64     58%   82 29.87        
Jun 11 08:02 S 18 10 Clear CLR 73 63     69%   74 29.87        
Jun 11 07:12 SSE 17 10 Clear CLR 72 63     73%   72 29.87        
Jun 11 07:07 SSE 16 10 Clear CLR 72 63     73%   72 29.86        
Jun 11 06:52 SSE 16 10 Clear CLR 72 63     73%   72 29.86        
Jun 11 05:12 SSE 13 10 Clear CLR 72 63     73%   72 29.85        
Jun 11 04:32 S 14 10 Clear CLR 72 63     73%   72 29.85        
Jun 11 02:42 S 16 10 Clear   73 63     69%   74 29.84        
Jun 11 02:32 S 15 10 Clear CLR 73 63     69%   74 29.85        
Jun 11 01:15 S 20 10 Clear and Windy CLR 73 63     69%   74 29.84        
Jun 11 00:55 S 16 10 Clear CLR 73 63     69%   74 29.85        
Jun 11 00:15 S 16 10 Clear CLR 73 63     69%   74 29.85        
Jun 10 22:22 SSE 14 10 Clear CLR 77 64     65%   77 29.83        
Jun 10 22:07 S 17 10 Clear   77 64     65%   77 29.82        
Jun 10 21:12 SSE 14 10 Clear CLR 79 64     61%   79 29.8        
Jun 10 18:35 S 17 10 Clear CLR 82 64     55%   84 29.77        
Jun 10 18:27 SSE 22 10 Partly Cloudy and Windy SCT040 84 66     55%   87 29.77        
Jun 10 18:17 SSE 24 10 Clear and Windy   84 66     55%   87 29.77        
Jun 10 17:02 SSE 23 10 Partly Cloudy and Windy SCT040 84 66     55%   87 29.77        
Jun 10 13:22 SSE 23 10 Mostly Cloudy and Windy BKN036 82 64     55%   84 29.83        
Jun 10 13:12 S 17 10 Mostly Cloudy BKN036 82 64     55%   84 29.84        
Jun 10 11:07 S 22 10 Clear and Windy CLR 81 64     58%   82 29.84        
Jun 10 09:42 S 23 10 Clear and Windy CLR 75 63     65%   75 29.86        
Notice The following observation data may not be complete
Jun 10 09:15   10 Clear CLR          %              
Notice The following observation data may not be complete
Jun 10 07:42   10 Clear CLR          %              
Jun 10 06:55 S 13 10 Clear CLR 68 61     78%     29.85        
Jun 10 02:57 SSE 7 10 Clear CLR 64 61     88%     29.82        
Jun 10 01:42 SSE 7 10 Clear CLR 66 59     78%     29.84        
Jun 10 01:32 SSE 7 10 Clear CLR 66 59     78%     29.84        
Jun 10 01:17 SSE 8 10 Clear CLR 66 59     78%     29.84        
Notice The following observation data may not be complete
Jun 10 00:47   10 Clear CLR          %              
Notice The following observation data may not be complete
Jun 09 21:35 SSE 8 10 Clear CLR   59      %     29.84        
Notice The following observation data may not be complete
Jun 09 20:47   10 Clear CLR          %              
Jun 09 20:12 SSE 9 10 Clear CLR 75 61     61%   75 29.84        
Jun 09 19:07 SSE 12 10 Clear CLR 81 57     45%   81 29.84        
Notice The following observation data may not be complete
Jun 09 18:47   10 Clear CLR          %              
Jun 09 17:26 SSE 14 10 Clear CLR 82 57     42%   82 29.85        
Jun 09 16:52 SSE 15 10 Clear CLR 82 57     42%   82 29.86        
Jun 09 16:22 SSE 14 10 Partly Cloudy SCT050 82 57     42%   82 29.87        
Notice The following observation data may not be complete
Jun 09 16:15   10 Partly Cloudy SCT050          %              
Jun 09 15:15 SSE 14 10 Clear CLR 82 57     42%   82 29.88        
Jun 09 15:02 SSE 16 10 Clear CLR 82 57     42%   82 29.88        
Jun 09 14:52 S 13 10 Partly Cloudy SCT050 82 57     42%   82 29.88        
Notice The following observation data may not be complete
Jun 09 13:47   10 Partly Cloudy SCT050          %              
Notice The following observation data may not be complete
Jun 09 08:55   10 Clear CLR          %              
Jun 09 07:15 Calm 10 Clear CLR 61 57     88%     29.93        
Notice The following observation data may not be complete
Jun 09 04:57   10 Clear CLR          %              
Jun 09 02:07 Calm 10 Clear CLR 61 55     82%     29.9        
Jun 09 01:07 Calm 10 Clear CLR 63 57     83%     29.92        
Jun 08 23:42 Calm 10 Clear CLR 64 57     77%     29.93        
Notice The following observation data may not be complete
Jun 08 22:42   10 Clear CLR          %              
Jun 08 19:32 ESE 6 10 Clear   79 52     39%   78 29.91        
Jun 08 19:17 ESE 6 10 Clear CLR 79 50     37%   78 29.92        
Jun 08 19:02 SSE 3 10 Clear CLR 79 48     34%   78 29.92        
Jun 08 18:52 SSE 6 10 Clear CLR 81 50     34%   80 29.92        
Jun 08 15:02 SSE 5 10 Clear CLR 81 45     28%   80 29.99        
Jun 08 14:17 SSW 6 10 Clear CLR 81 46     30%   80 30        
Jun 08 12:27 S 6 10 Clear CLR 77 46     34%   76 30.04        
Jun 08 11:52 SSE 6 10 Clear CLR 77 46     34%   76 30.05        
Notice The following observation data may not be complete
Jun 08 10:57   10 Clear CLR          %              
Jun 08 08:55 ENE 3 10 Clear CLR 68 57     68%     30.07        
Jun 08 08:42 Calm 10 Clear CLR 68 59     73%     30.07        
Jun 08 08:27 Calm 10 Clear   66 57     73%     30.07        
Jun 08 07:55 Calm 10 Clear CLR 63 55     77%     30.07        
Jun 08 06:57 Calm 10 Clear CLR 55 54     94%     30.06        
Jun 07 21:27 ENE 3 10 Clear CLR 70 54     56%     30.03        
Jun 07 21:17 ENE 3 10 Clear CLR 72 54     53%   71 30.03        
Jun 07 21:12 ENE 3 10 Clear CLR 72 54     53%   71 30.03        
Jun 07 18:07 ENE 9 10 Clear CLR 79 48     34%   78 30.03        
Jun 07 17:07 E 7 10 Clear CLR 81 46     30%   80 30.04        
Notice The following observation data may not be complete
Jun 07 15:42   10 Clear CLR          %              
Notice The following observation data may not be complete
Jun 07 14:42   10 Clear CLR          %              
Jun 07 13:37 ENE 5 10 Clear CLR 79 45     30%   78 30.07        
Jun 07 13:35 E 5 10 Clear CLR 77 43     30%   76 30.07        
Jun 07 12:02 NE 9 10 Clear CLR 77 46     34%   76 30.09        
Jun 07 11:22 NE 8 10 Clear CLR 77 46     34%   76 30.09        
Jun 07 10:47 NNE 10 10 Clear CLR 75 46     36%   74 30.09        
Jun 07 09:35 ENE 8 10 Clear CLR 72 50     46%   71 30.09        
Jun 07 09:02 ENE 8 10 Clear CLR 70 52     53%     30.08        
Jun 06 15:15 NNE 11 10 Clear CLR 84 55     37%   83 29.94        
Jun 06 14:12 NNE 16 10 Clear CLR 84 57     40%   83 29.95        
Jun 06 13:57 N 13 10 Clear CLR 84 55     37%   83 29.96        
Notice The following observation data may not be complete
Jun 06 12:42   10 Clear CLR          %              
Jun 06 12:37 NNE 13 10 Clear CLR 84 57     40%   83 29.96        
Jun 06 11:55 NNE 9 10 Clear CLR 81 59     48%   81 29.97        
Jun 06 11:32 NE 9 10 Clear CLR 81 63     54%   82 29.96        
Jun 06 09:02 NNE 7 10 Clear CLR 73 61     65%   73 29.95        
Jun 06 08:02 N 6 10 Clear CLR 70 61     73%     29.94        
Jun 06 07:42 N 3 10 Clear CLR 70 61     73%     29.93        
Jun 06 07:35 N 5 10 Clear CLR 68 61     78%     29.94        
Jun 06 06:55 N 5 10 Clear CLR 64 61     88%     29.92        
Jun 06 05:55 N 6 10 Clear CLR 63 61     94%     29.91        
Notice The following observation data may not be complete
Jun 06 04:52   10 Clear CLR          %              
Notice The following observation data may not be complete
Jun 06 02:57   10 Clear CLR          %              
Jun 06 02:55 Calm 10 Clear CLR 68 63     83%     29.89        
Jun 06 00:55 Calm 10 Clear CLR 68 64     88%     29.88        
Jun 05 22:42 W 3 10 Clear CLR 73 66     78%   74 29.87        
Jun 05 22:37 Calm 10 Clear   73 66     78%   74 29.87        
Jun 05 21:55 Calm 10 Clear   73 66     78%   74 29.86        
Jun 05 19:37 E 6 10 Clear CLR 84 63     48%   85 29.83        
Jun 05 18:22 ENE 12 10 Clear CLR 86 61     43%   86 29.81        
Jun 05 17:22 NE 9 10 Clear CLR 88 61     40%   88 29.8        
Notice The following observation data may not be complete
Jun 05 14:15   10 Clear CLR          %